This is the latest recevied weather packets stored in our database for station/object W2OBX. If no packets are shown the sender has not sent any weather packets the latest 10 day(s).
| Time | Temp. | Humidity | Pressure | Rain* | Wind** | Luminosity | Snow |
|---|---|---|---|---|---|---|---|
| 1777902227 | 11.67° C | 86% | 1018.9 hPa | 0 mm | - | 38 W/m² | - |
| 1777901926 | 11.11° C | 87% | 1018.9 hPa | 0 mm | - | 47 W/m² | - |
| 1777901623 | 11.11° C | 89% | 1018.7 hPa | 0 mm | - | 46 W/m² | - |
| 1777901320 | 10.56° C | 90% | 1018.6 hPa | 0 mm | - | 44 W/m² | - |
| 1777901017 | 10.56° C | 91% | 1018.5 hPa | 0 mm | - | 36 W/m² | - |
| 1777900715 | 10° C | 91% | 1018.6 hPa | 0 mm | - | 41 W/m² | - |
| 1777900412 | 9.44° C | 92% | 1018.7 hPa | 0 mm | - | 43 W/m² | - |
| 1777900109 | 9.44° C | 93% | 1018.5 hPa | 0 mm | - | 40 W/m² | - |
| 1777899805 | 8.89° C | 93% | 1018.6 hPa | 0 mm | - | 40 W/m² | - |
| 1777899502 | 8.89° C | 93% | 1018.3 hPa | 0 mm | - | 40 W/m² | - |
| 1777899200 | 8.89° C | 92% | 1018.4 hPa | 0 mm | - | 25 W/m² | - |
| 1777898898 | 8.33° C | 94% | 1018.2 hPa | 0 mm | - | 21 W/m² | - |
| 1777898594 | 7.78° C | 96% | 1018 hPa | 0 mm | - | 19 W/m² | - |
| 1777898292 | 7.78° C | 97% | 1017.9 hPa | 0 mm | - | 17 W/m² | - |
| 1777897989 | 7.22° C | 97% | 1018 hPa | 0 mm | - | 16 W/m² | - |
| 1777897685 | 7.22° C | 97% | 1017.9 hPa | 0 mm | - | 15 W/m² | - |
| 1777897381 | 6.67° C | 97% | 1017.9 hPa | 0 mm | - | 15 W/m² | - |
| 1777897077 | 6.67° C | 97% | 1017.9 hPa | 0 mm | - | 14 W/m² | - |
| 1777896774 | 6.11° C | 97% | 1017.8 hPa | 0 mm | - | 13 W/m² | - |
| 1777896471 | 6.11° C | 97% | 1018 hPa | 0 mm | - | 13 W/m² | - |
| 1777896169 | 5.56° C | 97% | 1017.7 hPa | 0 mm | - | 12 W/m² | - |
| 1777895867 | 5.56° C | 97% | 1017.8 hPa | 0 mm | - | 11 W/m² | - |
| 1777895564 | 5.56° C | 97% | 1017.8 hPa | 0 mm | - | 11 W/m² | - |
| 1777895261 | 5° C | 97% | 1017.6 hPa | 0 mm | - | 10 W/m² | - |
| 1777894959 | 5° C | 96% | 1017.8 hPa | 0 mm | - | 9 W/m² | - |
* Rain latest hour (hover to see other rain measurements)
** Current wind speed in m/s (hover to see current wind gust speed)